Weather History for Houlton, ME

Change the Weather History Date:

Monday, December 2, 2013

  Actual Average Record
Temperature  
Mean Temperature 30 °F 25 °F  
Max Temperature 34 °F 34 °F 52 °F (1996)
Min Temperature 26 °F 17 °F -13 °F (1989)
Degree Days  
Heating Degree Days 35 40  
Month to date heating degree days 75 79  
Since 1 July heating degree days 2076 2187  
Cooling Degree Days 0 0  
Month to date cooling degree days 0 0  
Year to date cooling degree days 198 191  
Moisture  
Dew Point 28 °F    
Average Humidity 93    
Maximum Humidity 100    
Minimum Humidity 85    
Precipitation  
Precipitation 0.04 in 0.13 in 1.03 in (2005)
Month to date precipitation 0.11 0.25  
Year to date precipitation 40.06 36.94  
Sea Level Pressure  
Sea Level Pressure 30.07 in    
Wind  
Wind Speed 4 mph (NE)    
Max Wind Speed 9 mph    
Max Gust Speed 12 mph    
Visibility 3 miles    
Events Snow    
T = Trace of Precipitation, MM = Missing Value Source: NWS Daily Summary

Daily Weather History Graph

Daily Weather History Graph

Search for Another Location

Airport:

Trip Planner

Search our weather history database for the weather conditions in past years. The results will help you decide how hot, cold, wet, or windy it might be!

Date:

Astronomy

Dec. 02, 2013 Rise Set
Actual Time 6:54 AM EST 3:46 PM EST
Civil Twilight 6:20 AM EST 4:20 PM EST
Nautical Twilight 5:42 AM EST 4:58 PM EST
Astronomical Twilight 5:06 AM EST 5:34 PM EST
Moon 6:13 AM EST (12/2) 3:48 PM EST (12/2)
Length of Visible Light 10h 00m
Length of Day
8h 52m
Waning Crescent, 0% of the Moon is Illuminated
Dec 2
Waning Crescent
Dec 2
New
Dec 9
First Quarter
Dec 17
Full
Dec 25
Last Quarter

Hourly Weather History & Observations

Time (EST) Temp. Windchill Dew Point Humidity Pressure Visibility Wind Dir Wind Speed Gust Speed Precip Events Conditions
12:53 AM 27.0 °F 20.5 °F 25.0 °F 92% 30.18 in 1.8 mi North 5.8 mph - 0.01 in Snow Light Snow
1:06 AM 26.1 °F 19.4 °F 25.0 °F 96% 30.15 in 2.0 mi North 5.8 mph - 0.00 in Snow Light Snow
1:22 AM 26.1 °F 19.4 °F 25.0 °F 96% 30.15 in 1.8 mi North 5.8 mph - 0.00 in Snow Light Snow
1:29 AM 26.1 °F 19.4 °F 25.0 °F 96% 30.15 in 2.0 mi North 5.8 mph - 0.00 in Snow Light Snow
1:40 AM 26.1 °F 19.4 °F 24.1 °F 92% 30.15 in 4.0 mi North 5.8 mph - 0.00 in Snow Light Snow
1:53 AM 26.1 °F 19.4 °F 24.1 °F 92% 30.17 in 4.0 mi North 5.8 mph - 0.00 in Snow Light Snow
2:53 AM 26.1 °F 19.4 °F 24.1 °F 92% 30.16 in 3.0 mi North 5.8 mph - 0.00 in Snow Light Snow
3:29 AM 26.1 °F 20.5 °F 25.0 °F 96% 30.13 in 4.0 mi NNE 4.6 mph - 0.00 in Snow Light Snow
3:53 AM 26.1 °F 20.5 °F 25.0 °F 96% 30.15 in 2.0 mi North 4.6 mph - 0.00 in Snow Light Snow
4:00 AM 26.1 °F - 25.0 °F 96% 30.12 in 2.5 mi Calm Calm - 0.00 in Snow Light Snow
4:28 AM 27.0 °F 20.5 °F 25.0 °F 92% 30.12 in 3.0 mi NNE 5.8 mph - 0.01 in Snow Light Snow
4:53 AM 27.0 °F 21.6 °F 25.0 °F 92% 30.14 in 6.0 mi NE 4.6 mph - 0.01 in   Overcast
5:09 AM 27.0 °F 20.5 °F 25.0 °F 92% 30.12 in 5.0 mi ENE 5.8 mph - N/A   Overcast
5:33 AM 27.0 °F 21.6 °F 25.0 °F 92% 30.12 in 2.5 mi NE 4.6 mph - 0.00 in Snow Light Snow
5:53 AM 27.0 °F 23.0 °F 25.0 °F 92% 30.14 in 2.0 mi Variable 3.5 mph - 0.00 in Snow Light Snow
6:07 AM 27.0 °F - 25.0 °F 92% 30.12 in 2.5 mi Calm Calm - 0.00 in Snow Light Snow
6:53 AM 27.0 °F 21.6 °F 25.0 °F 92% 30.14 in 2.5 mi East 4.6 mph - 0.00 in Snow Light Snow
7:03 AM 27.0 °F 21.6 °F 24.1 °F 89% 30.11 in 3.0 mi East 4.6 mph - 0.00 in Snow Light Snow
7:53 AM 27.0 °F 20.5 °F 24.1 °F 89% 30.13 in 4.0 mi East 5.8 mph - 0.01 in Snow Light Snow
8:03 AM 27.0 °F 20.5 °F 24.1 °F 89% 30.10 in 3.0 mi East 5.8 mph - 0.00 in Snow Light Snow
8:53 AM 27.0 °F 21.6 °F 25.0 °F 92% 30.12 in 4.0 mi ENE 4.6 mph - 0.00 in Snow Light Snow
9:00 AM 27.0 °F 19.5 °F 24.1 °F 89% 30.09 in 3.0 mi Variable 6.9 mph - 0.00 in Snow Light Snow
9:53 AM 28.0 °F 20.0 °F 25.0 °F 88% 30.11 in 3.0 mi ENE 8.1 mph - 0.00 in Snow Light Snow
10:17 AM 28.9 °F 22.8 °F 26.1 °F 89% 30.08 in 6.0 mi NE 5.8 mph - 0.00 in Snow Light Snow
10:43 AM 28.9 °F 22.8 °F 26.1 °F 89% 30.07 in 2.5 mi ENE 5.8 mph - 0.00 in Snow Light Snow
10:53 AM 30.0 °F 24.1 °F 26.1 °F 85% 30.09 in 3.0 mi ENE 5.8 mph - 0.00 in Snow Light Snow
11:05 AM 30.0 °F 23.2 °F 27.0 °F 88% 30.06 in 2.0 mi ENE 6.9 mph - 0.00 in Snow Light Snow
11:12 AM 30.0 °F 26.5 °F 27.0 °F 88% 30.06 in 1.8 mi NNE 3.5 mph - 0.00 in Snow Light Snow
11:33 AM 30.0 °F 25.2 °F 27.0 °F 88% 30.05 in 2.0 mi ENE 4.6 mph - 0.00 in Snow Light Snow
11:53 AM 30.9 °F 26.2 °F 28.0 °F 89% 30.07 in 1.8 mi ENE 4.6 mph - 0.00 in Snow Light Snow
12:18 PM 30.9 °F 26.2 °F 28.0 °F 89% 30.04 in 2.5 mi ENE 4.6 mph - 0.01 in Snow Light Snow
12:31 PM 30.9 °F 25.2 °F 28.0 °F 89% 30.03 in 4.0 mi East 5.8 mph - 0.01 in Snow Light Snow
12:43 PM 30.9 °F 24.3 °F 28.9 °F 92% 30.03 in 2.5 mi East 6.9 mph - 0.01 in Snow Light Snow
12:53 PM 32.0 °F 25.6 °F 28.9 °F 88% 30.05 in 2.0 mi East 6.9 mph - 0.01 in Snow Light Snow
1:02 PM 32.0 °F 26.4 °F 28.9 °F 88% 30.02 in 3.0 mi ENE 5.8 mph - 0.00 in Snow Light Snow
1:10 PM 32.0 °F 26.4 °F 28.9 °F 88% 30.02 in 7.0 mi Variable 5.8 mph - 0.00 in   Overcast
1:18 PM 32.0 °F 26.4 °F 28.9 °F 88% 30.02 in 10.0 mi NE 5.8 mph - 0.00 in   Overcast
1:53 PM 33.1 °F 27.7 °F 30.0 °F 89% 30.04 in 10.0 mi NNE 5.8 mph - 0.00 in   Overcast
2:53 PM 33.1 °F 26.1 °F 30.9 °F 92% 30.01 in 7.0 mi ENE 8.1 mph - 0.00 in   Overcast
3:53 PM 33.1 °F 30.0 °F 30.9 °F 92% 30.03 in 10.0 mi Variable 3.5 mph - N/A   Overcast
4:53 PM 33.1 °F 30.0 °F 32.0 °F 96% 30.02 in 9.0 mi ENE 3.5 mph - N/A   Overcast
5:41 PM 33.1 °F - 32.0 °F 96% 29.99 in 6.0 mi Calm Calm - 0.00 in   Overcast
5:53 PM 33.1 °F 28.7 °F 32.0 °F 96% 30.01 in 5.0 mi Variable 4.6 mph - 0.00 in   Overcast
6:53 PM 33.1 °F - 32.0 °F 96% 30.00 in 3.0 mi Calm Calm - N/A   Overcast
7:28 PM 33.1 °F - 33.1 °F 100% 29.99 in 3.0 mi Calm Calm - N/A   Overcast
7:49 PM 33.1 °F 30.0 °F 32.0 °F 96% 30.01 in 2.5 mi Variable 3.5 mph - N/A   Overcast
8:00 PM 33.1 °F 27.7 °F 32.0 °F 96% 29.98 in 1.8 mi ENE 5.8 mph - N/A   Overcast
8:27 PM 33.1 °F 30.0 °F 33.1 °F 100% 29.97 in 1.2 mi North 3.5 mph - N/A   Overcast
8:53 PM 33.1 °F - 33.1 °F 100% 30.00 in 1.2 mi Calm Calm - N/A   Overcast
9:08 PM 33.1 °F - 32.0 °F 96% 29.99 in 0.8 mi Calm Calm - N/A   Mist
9:48 PM 33.8 °F - 33.8 °F 100% 29.97 in 1.0 mi Calm Calm - N/A   Overcast
9:53 PM 33.1 °F - 33.1 °F 100% 29.99 in 1.0 mi Calm Calm - N/A   Overcast
10:53 PM 33.1 °F 28.7 °F 32.0 °F 96% 29.97 in 1.2 mi NNE 4.6 mph - N/A   Overcast
11:16 PM 33.1 °F - 32.0 °F 96% 29.95 in 0.8 mi Calm Calm - N/A   Mist
11:53 PM 33.1 °F - 33.1 °F 100% 29.97 in 0.8 mi Calm Calm - N/A   Mist